FDX125 EGPH-EGCC

Flight info

Callsign FDX125
Flight time 0h 50m
Altitude 24000
Route GOSAM P600 FENIK/N0398F250 L612 LAKEY
Aircraft B737/M-SDE2E3FGHIRWXY/LB1

Departure

Time 2026-05-04 18:04
Airport Edinburgh Airport (EGPH)

Arrival

Time 2026-05-04 18:54
Airport Manchester Airport (EGCC)
Time Latitude Longitude Altitude Speed Heading
2026-05-04 17:30 55.94837 -3.36639 105 ft 0 kts 89°
2026-05-04 17:53 55.94837 -3.36655 104 ft 3 kts 85°
2026-05-04 17:54 55.94834 -3.36688 103 ft 3 kts 58°
2026-05-04 17:54 55.94826 -3.36706 102 ft 3 kts 351°
2026-05-04 17:54 55.94823 -3.36706 103 ft 1 kts 296°
2026-05-04 17:54 55.94821 -3.36699 103 ft 0 kts 296°
2026-05-04 17:59 55.94824 -3.36709 103 ft 2 kts 296°
2026-05-04 18:00 55.94838 -3.36754 103 ft 6 kts 311°
2026-05-04 18:00 55.94889 -3.36795 103 ft 10 kts 332°
2026-05-04 18:00 55.94957 -3.36797 105 ft 12 kts 48°
2026-05-04 18:00 55.95001 -3.36667 106 ft 14 kts 60°
2026-05-04 18:01 55.95057 -3.36503 107 ft 17 kts 58°
2026-05-04 18:01 55.95127 -3.36300 103 ft 20 kts 59°
2026-05-04 18:01 55.95185 -3.36129 102 ft 16 kts 58°
2026-05-04 18:02 55.95336 -3.35682 101 ft 23 kts 58°
2026-05-04 18:02 55.95411 -3.35459 104 ft 19 kts 58°
2026-05-04 18:02 55.95499 -3.35439 101 ft 12 kts 329°
2026-05-04 18:02 55.95570 -3.35520 101 ft 12 kts 315°
2026-05-04 18:03 55.95543 -3.35642 101 ft 12 kts 228°
2026-05-04 18:03 55.95495 -3.35789 102 ft 27 kts 239°
2026-05-04 18:03 55.95266 -3.36462 101 ft 99 kts 238°
2026-05-04 18:03 55.94819 -3.37802 158 ft 146 kts 242°
2026-05-04 18:04 55.94262 -3.39468 583 ft 162 kts 241°
2026-05-04 18:04 55.93616 -3.41323 1021 ft 187 kts 242°
2026-05-04 18:04 55.92333 -3.45020 2641 ft 161 kts 241°
2026-05-04 18:05 55.91733 -3.46740 3041 ft 164 kts 242°
2026-05-04 18:05 55.91118 -3.48507 3286 ft 175 kts 243°
2026-05-04 18:05 55.90485 -3.50467 3443 ft 189 kts 252°
2026-05-04 18:05 55.90235 -3.52820 3559 ft 200 kts 264°
2026-05-04 18:06 55.89714 -3.58330 4199 ft 250 kts 262°
2026-05-04 18:06 55.89407 -3.61399 5163 ft 254 kts 262°
2026-05-04 18:06 55.89098 -3.64469 5735 ft 251 kts 262°
2026-05-04 18:07 55.88789 -3.67551 5985 ft 254 kts 262°
2026-05-04 18:07 55.88477 -3.70650 6006 ft 255 kts 262°
2026-05-04 18:07 55.88160 -3.73787 6006 ft 259 kts 262°
2026-05-04 18:07 55.87840 -3.76940 6011 ft 260 kts 261°
2026-05-04 18:08 55.87519 -3.80122 6000 ft 261 kts 262°
2026-05-04 18:08 55.87198 -3.83353 6007 ft 262 kts 262°
2026-05-04 18:08 55.86887 -3.86488 6015 ft 260 kts 262°
2026-05-04 18:08 55.86568 -3.89687 6017 ft 258 kts 262°
2026-05-04 18:09 55.86050 -3.94870 5998 ft 254 kts 262°
2026-05-04 18:09 55.85315 -4.02190 6013 ft 259 kts 262°
2026-05-04 18:10 55.85104 -4.04286 6027 ft 260 kts 262°
2026-05-04 18:10 55.84667 -4.08524 6025 ft 260 kts 260°
2026-05-04 18:10 55.84320 -4.10559 6019 ft 261 kts 250°
2026-05-04 18:10 55.83440 -4.13387 6034 ft 262 kts 237°
2026-05-04 18:11 55.82245 -4.15839 6029 ft 264 kts 227°
2026-05-04 18:11 55.80815 -4.17880 6033 ft 265 kts 219°
2026-05-04 18:11 55.79293 -4.19732 6025 ft 265 kts 217°
2026-05-04 18:11 55.77757 -4.21557 6092 ft 269 kts 218°
2026-05-04 18:12 55.76194 -4.23453 6907 ft 272 kts 217°
2026-05-04 18:12 55.74640 -4.25348 8062 ft 271 kts 218°
2026-05-04 18:12 55.73051 -4.27196 9132 ft 278 kts 210°
2026-05-04 18:12 55.71139 -4.27950 10189 ft 290 kts 181°
2026-05-04 18:13 55.69115 -4.27055 10812 ft 318 kts 158°
2026-05-04 18:13 55.67066 -4.25141 11175 ft 345 kts 153°
2026-05-04 18:13 55.62819 -4.20812 13028 ft 357 kts 152°
2026-05-04 18:14 55.60618 -4.18595 14031 ft 362 kts 153°
2026-05-04 18:14 55.58402 -4.16395 14935 ft 368 kts 153°
2026-05-04 18:14 55.56174 -4.14206 15847 ft 374 kts 153°
2026-05-04 18:15 55.53104 -4.11209 17100 ft 382 kts 154°
2026-05-04 18:15 55.46753 -4.05037 19411 ft 396 kts 154°
2026-05-04 18:15 55.43675 -4.02047 20505 ft 399 kts 153°
2026-05-04 18:16 55.41228 -3.99671 21373 ft 402 kts 153°
2026-05-04 18:16 55.38775 -3.97292 22198 ft 406 kts 154°
2026-05-04 18:16 55.37130 -3.95700 22729 ft 409 kts 154°
2026-05-04 18:17 55.32099 -3.90837 23963 ft 416 kts 154°
2026-05-04 18:17 55.29565 -3.88391 24013 ft 413 kts 154°
2026-05-04 18:17 55.24533 -3.83546 24050 ft 414 kts 154°
2026-05-04 18:18 55.22001 -3.81116 24055 ft 414 kts 154°
2026-05-04 18:18 55.19476 -3.78696 24043 ft 414 kts 153°
2026-05-04 18:18 55.16918 -3.76247 24051 ft 413 kts 153°
2026-05-04 18:18 55.14396 -3.73834 24056 ft 413 kts 153°
2026-05-04 18:19 55.09358 -3.69025 24045 ft 412 kts 153°
2026-05-04 18:19 55.06849 -3.66634 24045 ft 412 kts 153°
2026-05-04 18:19 55.04333 -3.64239 24051 ft 411 kts 153°
2026-05-04 18:20 55.01816 -3.61847 24045 ft 411 kts 153°
2026-05-04 18:20 54.99305 -3.59466 24043 ft 411 kts 153°
2026-05-04 18:20 54.96791 -3.57089 24045 ft 411 kts 153°
2026-05-04 18:20 54.94275 -3.54723 24036 ft 411 kts 153°
2026-05-04 18:21 54.91758 -3.52362 24040 ft 411 kts 153°
2026-05-04 18:21 54.89246 -3.50007 24045 ft 411 kts 153°
2026-05-04 18:21 54.86730 -3.47652 24047 ft 411 kts 153°
2026-05-04 18:21 54.84218 -3.45303 24048 ft 411 kts 153°
2026-05-04 18:22 54.81695 -3.42945 24045 ft 411 kts 153°
2026-05-04 18:22 54.79178 -3.40596 24051 ft 411 kts 153°
2026-05-04 18:22 54.76660 -3.38249 24045 ft 411 kts 153°
2026-05-04 18:22 54.74135 -3.35900 24044 ft 411 kts 153°
2026-05-04 18:23 54.71607 -3.33601 24043 ft 411 kts 155°
2026-05-04 18:23 54.69007 -3.31541 24034 ft 411 kts 157°
2026-05-04 18:23 54.66376 -3.29592 24046 ft 412 kts 158°
2026-05-04 18:23 54.63730 -3.27661 24056 ft 412 kts 158°
2026-05-04 18:24 54.61086 -3.25721 24050 ft 413 kts 157°
2026-05-04 18:24 54.58448 -3.23764 24041 ft 413 kts 157°
2026-05-04 18:24 54.55810 -3.21794 24048 ft 413 kts 157°
2026-05-04 18:24 54.53174 -3.19823 24050 ft 414 kts 157°
2026-05-04 18:25 54.50535 -3.17851 24038 ft 413 kts 157°
2026-05-04 18:25 54.47893 -3.15881 24049 ft 414 kts 157°
2026-05-04 18:25 54.45253 -3.13915 24048 ft 414 kts 156°
2026-05-04 18:25 54.42606 -3.11946 24051 ft 415 kts 156°
2026-05-04 18:26 54.39970 -3.09988 23707 ft 412 kts 156°
2026-05-04 18:26 54.37318 -3.08019 23147 ft 409 kts 156°
2026-05-04 18:26 54.34762 -3.06125 22569 ft 402 kts 157°
2026-05-04 18:26 54.32177 -3.04211 21970 ft 396 kts 157°
2026-05-04 18:27 54.29666 -3.02354 21379 ft 391 kts 157°
2026-05-04 18:27 54.27183 -3.00520 20775 ft 387 kts 157°
2026-05-04 18:27 54.24722 -2.98707 20267 ft 384 kts 158°
2026-05-04 18:27 54.22345 -2.96680 20113 ft 378 kts 150°
2026-05-04 18:28 54.20158 -2.94309 20040 ft 366 kts 146°
2026-05-04 18:28 54.18110 -2.91917 20028 ft 347 kts 146°
2026-05-04 18:28 54.16176 -2.89638 20021 ft 330 kts 146°
2026-05-04 18:28 54.14325 -2.87480 20024 ft 314 kts 146°
2026-05-04 18:29 54.12563 -2.85455 20018 ft 299 kts 147°
2026-05-04 18:29 54.10877 -2.83539 20032 ft 283 kts 147°
2026-05-04 18:29 54.09276 -2.81731 20025 ft 269 kts 147°
2026-05-04 18:29 54.07754 -2.80023 20028 ft 256 kts 147°
2026-05-04 18:30 54.04818 -2.76739 20049 ft 254 kts 147°
2026-05-04 18:30 54.03310 -2.75058 19804 ft 268 kts 147°
2026-05-04 18:30 54.01677 -2.73242 19486 ft 300 kts 147°
2026-05-04 18:31 53.99819 -2.71177 19164 ft 333 kts 147°
2026-05-04 18:31 53.97864 -2.69005 18774 ft 338 kts 147°
2026-05-04 18:31 53.95891 -2.66817 18362 ft 339 kts 147°
2026-05-04 18:31 53.93925 -2.64636 17908 ft 335 kts 147°
2026-05-04 18:32 53.91986 -2.62490 17447 ft 331 kts 147°
2026-05-04 18:32 53.90069 -2.60368 16936 ft 326 kts 148°
2026-05-04 18:32 53.88180 -2.58282 16289 ft 321 kts 148°
2026-05-04 18:32 53.86311 -2.56221 15451 ft 322 kts 148°
2026-05-04 18:33 53.84433 -2.54155 14653 ft 322 kts 149°
2026-05-04 18:33 53.82527 -2.52060 13854 ft 323 kts 149°
2026-05-04 18:33 53.80645 -2.49989 12980 ft 322 kts 149°
2026-05-04 18:33 53.78766 -2.47924 12136 ft 321 kts 149°
2026-05-04 18:34 53.76896 -2.45872 11305 ft 321 kts 148°
2026-05-04 18:34 53.75024 -2.43820 10494 ft 320 kts 149°
2026-05-04 18:34 53.73164 -2.41783 9671 ft 319 kts 149°
2026-05-04 18:34 53.71310 -2.39752 8807 ft 317 kts 148°
2026-05-04 18:35 53.69466 -2.37737 7952 ft 314 kts 148°
2026-05-04 18:35 53.67660 -2.35749 7433 ft 302 kts 147°
2026-05-04 18:35 53.65970 -2.33841 7185 ft 283 kts 147°
2026-05-04 18:35 53.64381 -2.32038 6924 ft 269 kts 147°
2026-05-04 18:36 53.62861 -2.30320 6649 ft 258 kts 147°
2026-05-04 18:36 53.61236 -2.29182 6397 ft 254 kts 174°
2026-05-04 18:36 53.59475 -2.29306 6171 ft 255 kts 189°
2026-05-04 18:36 53.57714 -2.29754 5921 ft 257 kts 190°
2026-05-04 18:37 53.55970 -2.30248 5658 ft 253 kts 191°
2026-05-04 18:37 53.54249 -2.30735 5400 ft 249 kts 191°
2026-05-04 18:37 53.52545 -2.31212 5142 ft 247 kts 191°
2026-05-04 18:37 53.50852 -2.31691 4893 ft 247 kts 191°
2026-05-04 18:38 53.49153 -2.32073 4619 ft 246 kts 180°
2026-05-04 18:38 53.47465 -2.31592 4367 ft 246 kts 167°
2026-05-04 18:38 53.45808 -2.30881 4107 ft 246 kts 166°
2026-05-04 18:38 53.44149 -2.30153 3867 ft 246 kts 166°
2026-05-04 18:39 53.42496 -2.29419 3617 ft 246 kts 166°
2026-05-04 18:39 53.40836 -2.28668 3532 ft 250 kts 166°
2026-05-04 18:39 53.39155 -2.27908 3502 ft 249 kts 166°
2026-05-04 18:39 53.37564 -2.26875 3479 ft 245 kts 144°
2026-05-04 18:40 53.36494 -2.24753 3479 ft 237 kts 112°
2026-05-04 18:40 53.36268 -2.22166 3477 ft 219 kts 78°
2026-05-04 18:40 53.36887 -2.19969 3506 ft 206 kts 49°
2026-05-04 18:40 53.37832 -2.18131 3495 ft 203 kts 47°
2026-05-04 18:41 53.38759 -2.16418 3512 ft 196 kts 45°
2026-05-04 18:41 53.39865 -2.15174 3505 ft 189 kts 23°
2026-05-04 18:41 53.40911 -2.13834 3507 ft 193 kts 47°
2026-05-04 18:41 53.41802 -2.12128 3508 ft 196 kts 46°
2026-05-04 18:42 53.42837 -2.10646 3500 ft 196 kts 30°
2026-05-04 18:42 53.44054 -2.09661 3490 ft 193 kts 19°
2026-05-04 18:42 53.45295 -2.08806 3481 ft 194 kts 29°
2026-05-04 18:42 53.46290 -2.07292 3498 ft 194 kts 46°
2026-05-04 18:43 53.47206 -2.05635 3502 ft 194 kts 45°
2026-05-04 18:43 53.48130 -2.03970 3494 ft 196 kts 45°
2026-05-04 18:43 53.49059 -2.02295 3490 ft 196 kts 44°
2026-05-04 18:43 53.50174 -2.01060 3479 ft 192 kts 11°
2026-05-04 18:44 53.51488 -2.00811 3484 ft 190 kts
2026-05-04 18:44 53.51933 -2.00768 3491 ft 190 kts
2026-05-04 18:44 53.54116 -2.00571 3475 ft 183 kts
2026-05-04 18:44 53.55352 -2.00467 3464 ft 173 kts
2026-05-04 18:45 53.56508 -2.00072 3460 ft 171 kts 30°
2026-05-04 18:45 53.57237 -1.98513 3490 ft 177 kts 73°
2026-05-04 18:45 53.57153 -1.96444 3499 ft 185 kts 115°
2026-05-04 18:45 53.56261 -1.94905 3498 ft 188 kts 156°
2026-05-04 18:46 53.55009 -1.94521 3499 ft 182 kts 179°
2026-05-04 18:46 53.53776 -1.94767 3470 ft 177 kts 209°
2026-05-04 18:46 53.52824 -1.95995 3496 ft 174 kts 225°
2026-05-04 18:46 53.51933 -1.97409 3501 ft 178 kts 226°
2026-05-04 18:47 53.51034 -1.98853 3491 ft 179 kts 226°
2026-05-04 18:47 53.50121 -2.00318 3494 ft 179 kts 226°
2026-05-04 18:47 53.49263 -2.01693 3473 ft 166 kts 226°
2026-05-04 18:47 53.48441 -2.03004 3469 ft 158 kts 226°
2026-05-04 18:48 53.47649 -2.04263 3481 ft 157 kts 226°
2026-05-04 18:48 53.46855 -2.05526 3462 ft 158 kts 226°
2026-05-04 18:48 53.46045 -2.06817 3232 ft 161 kts 226°
2026-05-04 18:48 53.45256 -2.08090 3011 ft 152 kts 226°
2026-05-04 18:49 53.44530 -2.09250 2816 ft 139 kts 226°
2026-05-04 18:49 53.44072 -2.09971 2673 ft 130 kts 226°
2026-05-04 18:49 53.43409 -2.10966 2474 ft 129 kts 225°
2026-05-04 18:49 53.42752 -2.11963 2250 ft 126 kts 226°
2026-05-04 18:50 53.42100 -2.12938 2027 ft 126 kts 226°
2026-05-04 18:50 53.41436 -2.13898 1793 ft 127 kts 226°
2026-05-04 18:50 53.40762 -2.14864 1521 ft 124 kts 225°
2026-05-04 18:50 53.40146 -2.15823 1258 ft 121 kts 234°
2026-05-04 18:51 53.39626 -2.16915 990 ft 120 kts 239°
2026-05-04 18:51 53.39181 -2.18114 808 ft 120 kts 240°
2026-05-04 18:51 53.38819 -2.19384 728 ft 120 kts 244°
2026-05-04 18:51 53.38275 -2.20423 722 ft 118 kts 225°
2026-05-04 18:52 53.37722 -2.21435 731 ft 117 kts 233°
2026-05-04 18:52 53.37253 -2.22568 693 ft 118 kts 236°
2026-05-04 18:52 53.36781 -2.23685 675 ft 118 kts 231°
2026-05-04 18:52 53.36258 -2.24760 573 ft 120 kts 231°
2026-05-04 18:53 53.35730 -2.25843 468 ft 121 kts 228°
2026-05-04 18:53 53.35198 -2.26930 350 ft 119 kts 231°
2026-05-04 18:53 53.34689 -2.28006 268 ft 116 kts 231°
2026-05-04 18:53 53.34234 -2.28926 249 ft 82 kts 231°
2026-05-04 18:54 53.33957 -2.29495 241 ft 53 kts 231°
2026-05-04 18:54 53.33765 -2.29906 237 ft 15 kts 238°
2026-05-04 18:54 53.33724 -2.29928 236 ft 6 kts 134°
2026-05-04 18:54 53.33736 -2.29871 237 ft 6 kts 33°
2026-05-04 18:55 53.33783 -2.29845 237 ft 8 kts 31°
2026-05-04 18:55 53.33870 -2.29667 238 ft 11 kts 50°
2026-05-04 18:55 53.33923 -2.29565 240 ft 12 kts 50°
2026-05-04 18:56 53.33982 -2.29445 242 ft 13 kts 50°
2026-05-04 18:56 53.34040 -2.29327 245 ft 13 kts 50°
2026-05-04 18:56 53.34101 -2.29198 247 ft 15 kts 52°
2026-05-04 18:56 53.34166 -2.29060 249 ft 16 kts 50°
2026-05-04 18:57 53.34242 -2.28908 249 ft 18 kts 51°
2026-05-04 18:57 53.34323 -2.28743 250 ft 19 kts 45°
2026-05-04 18:57 53.34428 -2.28601 253 ft 19 kts 32°
2026-05-04 18:57 53.34547 -2.28510 257 ft 18 kts 21°
2026-05-04 18:58 53.34665 -2.28433 259 ft 18 kts 21°
2026-05-04 18:58 53.34763 -2.28294 259 ft 20 kts 52°
2026-05-04 18:58 53.34839 -2.28137 259 ft 16 kts 51°
2026-05-04 18:58 53.34909 -2.27992 259 ft 15 kts 46°
2026-05-04 18:59 53.35005 -2.28026 255 ft 18 kts 321°
2026-05-04 18:59 53.35098 -2.28154 254 ft 13 kts 321°
2026-05-04 18:59 53.35176 -2.28202 253 ft 10 kts
2026-05-04 18:59 53.35245 -2.28192 253 ft 11 kts
2026-05-04 19:00 53.35323 -2.28137 252 ft 13 kts 44°
2026-05-04 19:00 53.35399 -2.28013 251 ft 17 kts 44°
2026-05-04 19:00 53.35508 -2.27915 250 ft 19 kts
2026-05-04 19:00 53.35636 -2.27875 250 ft 19 kts 34°